EHI
0 0 0 0 0 0 0 0 0 0 0 0 0 0 0 0 0 0 0 0 0 0 0 0 0 0 0 0 0 0 0 0 0 0 0 0 0 0 0 0 0 0 0
0 0 0 0 0 0 0 0 0 0 0 0 0 0 0 0 0 0 0 0 0 0 0 0 0 0 0 0 0 0 0 0 0 0 0 0 0 0 0 0 0 0 0
0 0 0 0 0 0 0 0 0 0 0 0 0 0 0 0 0 0 0 0 0 0 0 0 0 0 0 0 0 0 0 0 0 0 0 0 0 0 0 0 0 0 0
0 0 0 0 0 0 0 0 0 0 0 0 0 0 0 0 0 0 0 0 0 0 0 0 0 0 0 0 0 0 0 0 0 0 0 0 0 0 0 0 0 0 0
0 0 0 0 0 0 0 0 0 0 0 0 0 0 0 0 0 0 0 0 0 0 0 0 0 0 0 0 0 0 0 0 0 0 0 0 0 0 0 0 0 0 0
0 0 0 0 0 0 0 0 0 0 0 0 0 0 0 0 0 0 0 0 0 0 0 0 0 0 0 0 0 0 0 0 0 0 0 0 0 0 0 0 0 0 0
0 0 0 0 0 0 0 0 0 0 0 0 0 0 0 0 0 0 0 0 0 0 0 0 0 0 0 0 0 0 0 0 0 0 0 0 0 0 0 0 0 0 0
0 0 0 0 0 0 0 0 0 0 0 0 0 0 0 0 0 0 0 0 0 0 0 0 0 0 0 0 0 0 0 0 0 0 0 0 0 0 0 0 0 0 0
0 0 0 0 0 0 0 0 0 0 0 0 0 0 0 0 0 0 0 0 0 0 0 0 0 0 0 0 0 0 0 0 0 0 0 0 0 0 0 0 0 0 0
0 0 0 0 0 0 0 0 0 0 0 0 0 0 0 0 0 0 0 0 0 0 0 0 0 0 0 0 0 0 0 0 0 0 0 0 0 0 0 0 0 0 0
0 0 0 0 0 0 0 0 0 0 0 0 0 0 0 0 0 0 0 0 0 0 0 0 0 0 0 0 0 0 0 0 0 0 0 0 0 0 0 0 0 0 0
0 0 0 0 0 0 0 0 0 0 0 0 0 0 0 0 0 0 0 0 0 0 0 0 0 0 0 0 0 0 0 0 0 0 0 0 0 0 0 0 0 0 0
0 0 0 0 0 0 0 0 0 0 0 0 0 0 0 0 0 0 0 0 0 0 0 0 0 0 0 0 0 0 0 0 0 0 0 0 0 0 0 0 0 0 0
0 0 0 0 0 0 0 0 0 0 0 0 0 0 0 0 0 0 0 0 0 0 0 0 0 0 0 0 0 0 0 0 0 0 0 0 0 0 0 0 0 0 0
0 0 0 0 0 0 0 0 0 0 0 0 0 0 0 0 0 0 0 0 0 0 0 0 0 0 0 0 0 0 0 0 0 0 0 0 0 0 0 0 0 0 0
0 0 0 0 0 0 0 0 0 0 0 0 0 0 0 0 0 0 0 0 0 0 0 0 0 0 0 0 0 0 0 0 0 0 0 0 0 0 0 0 0 0 0
0 0 0 0 0 0 0 0 0 0 0 0 0 0 0 0 0 0 0 0 0 0 0 0 0 0 0 0 0 0 0 0 0 0 0 0 0 0 0 0 0 0 0
0 0 0 0 0 0 0 0 0 0 0 0 0 0 0 0 0 0 0 0 0 0 0 0 0 0 0 0 0 0 0 0 0 0 0 0 0 0 0 0 0 0 0
0 0 0 0 0 0 0 0 0 0 0 0 0 0 0 0 0 0 0 0 0 0 0 0 0 0 0 0 0 0 0 0 0 0 0 0 0 0 0 0 0 0 0
0 0 0 0 0 0 0 0 0 0 0 0 0 0 0 0 0 0 0 0 0 0 0 0 0 0 0 0 0 0 0 0 0 0 0 0 0 0 0 0 0 0 0
0 0 0 0 0 0 0 0 0 0 0 0 0 0 0 0 0 0 0 0 0 0 0 0 0 0 0 0 0 0 0 0 0 0 0 0 0 0 0 0 0 0 0
0 0 0 0 0 0 0 0 0 0 0 0 0 0 0 0 0 0 0 0 0 0 0 0 0 0 0 0 0 0 0 0 0 0 0 0 0 0 0 0 0 0 0
0 0 0 0 0 0 0 0 0 0 0 0 0 0 0 0 0 0 0 0 0 0 0 0 0 0 0 0 0 0 0 0 0 0 0 0 0 0 0 0 0 0 0
0 0 0 0 0 0 0 0 0 0 0 0 0 0 0 0 0 0 0 0 0 0 0 0 0 0 0 0 0 0 0 0 0 0 0 0 0 0 0 0 0 0 0
0 0 0 0 0 0 0 0 0 0 0 0 0 0 0 0 0 0 0 0 0 0 0 0 0 0 0 0 0 0 0 0 0 0 0 0 0 0 0 0 0 0 0
0 0 0 0 0 0 0 0 0 0 0 0 0 0 0 0 0 0 0 0 0 0 0 0 0 0 0 0 0 0 0 0 0 0 0 0 0 0 0 0 0 0 0
Wind_Speed
2 3 3 3 3 4 3 4 4 5 5 6 5 5 5 4 4 4 4 4 4 4 4 4 4 4 3 4 4 4 4 4 5 3 2 3 3 3 5 5 6 9 10
1 3 4 4 3 4 4 5 5 6 5 6 6 5 5 5 4 4 5 5 4 4 4 4 4 3 4 4 4 5 5 5 5 5 3 3 4 4 4 5 5 7 7
0 1 3 3 3 4 4 5 5 6 6 6 6 6 6 6 5 5 4 4 5 4 4 4 4 4 4 3 4 5 4 5 4 4 3 3 3 2 3 3 4 4 5
1 1 2 3 3 3 4 4 5 5 5 6 5 5 6 6 6 6 6 5 5 5 4 4 4 4 4 3 4 5 5 5 4 4 3 3 3 3 3 4 3 3 4
1 1 0 2 3 3 4 4 4 4 6 5 5 5 5 5 5 6 6 6 6 6 5 4 4 4 4 4 3 3 4 4 4 4 4 3 4 4 4 4 5 4 3
1 1 1 1 2 3 4 4 4 5 5 4 5 5 5 4 7 8 7 6 6 6 5 5 4 4 5 6 7 6 6 5 5 5 4 5 6 5 4 5 5 5 4
2 1 1 1 2 2 4 4 4 5 4 4 5 5 5 5 7 8 9 7 6 6 5 5 5 4 3 3 4 7 8 10 9 6 6 6 6 7 7 7 6 5 4
1 1 1 2 2 2 3 4 4 4 4 4 4 4 5 5 6 7 10 7 6 6 5 5 4 3 3 2 3 4 5 6 8 7 6 6 5 6 7 7 7 5 3
2 2 2 2 2 2 3 4 4 3 4 4 4 4 5 4 4 5 8 6 5 6 4 4 4 3 3 4 3 4 5 4 6 9 9 8 9 9 8 6 7 7 4
1 2 2 1 2 3 4 4 4 4 4 4 4 4 4 4 2 3 6 4 5 5 4 4 3 3 4 4 3 4 5 4 3 3 5 7 7 10 12 9 8 8 5
3 3 3 3 4 5 4 4 4 4 4 5 5 5 4 3 3 2 4 3 4 5 5 4 3 4 5 6 5 4 5 4 3 3 3 4 4 5 7 6 7 8 7
4 4 4 5 5 4 4 5 5 5 5 5 5 5 3 3 2 3 4 5 5 4 5 4 3 6 7 7 5 5 6 4 3 3 3 3 4 4 5 6 6 5 4
5 5 5 6 5 5 5 5 5 4 4 4 3 4 3 2 2 3 4 6 6 4 4 7 9 9 8 5 5 6 4 3 3 3 3 3 3 4 4 4 4 4 4
6 5 5 5 5 4 3 3 3 3 3 3 3 3 4 3 2 1 2 3 4 4 4 6 8 7 5 5 4 3 2 2 2 3 2 2 2 3 4 4 4 4 4
7 6 6 5 4 4 4 4 4 4 4 4 4 3 3 4 3 2 2 2 2 3 4 4 3 3 2 2 2 1 1 1 2 2 3 3 3 3 3 4 4 4 4
7 7 6 6 5 4 5 5 7 7 8 10 10 8 6 7 7 6 6 6 6 5 3 3 3 3 3 2 2 1 1 2 2 2 3 3 3 4 3 3 3 4 5
7 7 6 6 6 6 5 5 6 6 8 9 11 11 12 12 11 9 8 7 8 5 3 4 4 3 3 2 2 2 2 2 2 3 3 4 4 4 4 4 4 4 5
7 7 8 6 6 6 6 6 5 5 5 5 7 9 11 12 12 11 7 4 5 4 4 5 5 4 3 3 3 2 2 2 3 3 3 4 5 5 5 5 5 5 5
6 5 6 6 6 5 6 6 6 6 5 5 5 5 7 8 9 9 5 4 5 5 5 5 5 4 4 4 3 3 3 3 3 3 4 4 5 5 5 5 5 7 6
5 9 9 6 5 6 6 6 6 6 6 6 6 5 5 4 4 4 3 4 5 6 6 5 5 5 4 4 4 4 3 3 4 4 4 4 4 5 6 6 6 6 6
5 7 10 6 5 6 6 6 6 6 6 6 6 8 10 5 4 6 5 4 4 5 5 5 5 5 5 4 4 5 5 4 5 5 5 5 5 5 5 5 6 6 6
5 5 5 5 5 5 6 6 6 6 7 7 6 7 10 6 6 6 6 6 6 5 5 5 4 4 3 4 4 5 5 5 5 6 6 6 6 5 5 5 6 6 6
6 6 5 5 5 7 6 6 6 6 6 6 7 7 7 6 6 6 7 7 8 8 7 6 5 5 4 3 3 4 5 6 6 6 6 6 6 6 6 7 8 8 7
6 5 5 5 5 5 5 5 6 6 6 7 7 6 6 6 7 8 8 7 7 8 8 8 8 9 9 6 4 3 3 4 4 5 8 7 7 6 6 6 7 9 8
5 5 5 5 5 5 5 5 6 6 6 6 6 6 6 7 7 7 7 7 9 9 10 9 8 10 13 12 8 6 8 8 7 4 5 6 7 7 7 7 7 7 7
5 5 4 4 4 5 5 5 6 6 6 6 6 6 6 6 6 7 6 6 7 8 9 8 11 13 15 12 11 11 10 9 8 8 5 5 7 7 7 7 9 8 8
Wind_Direction
356 340 333 323 313 315 321 325 320 320 321 322 323 325 323 319 312 308 298 292 289 284 275 259 248 232 218 210 206 206 209 199 216 232 214 221 208 208 189 194 177 172 186
35 343 322 308 325 339 341 339 337 335 332 331 335 336 333 329 321 310 309 311 301 297 292 279 267 254 228 218 206 209 210 206 204 217 214 209 211 199 189 192 181 176 178
149 300 306 326 350 344 338 344 336 333 336 337 339 341 340 336 328 323 320 314 305 297 290 284 271 263 247 228 212 211 210 213 203 206 212 205 208 193 179 184 173 169 175
201 250 304 330 340 340 340 331 322 332 331 330 334 335 338 340 343 350 339 320 311 304 297 288 275 260 255 244 227 217 209 209 203 201 206 198 196 188 172 171 173 169 166
225 235 280 334 338 336 325 315 321 327 326 326 330 330 333 334 352 353 334 322 316 307 302 295 285 264 254 252 248 228 213 209 202 198 201 200 194 180 187 178 177 167 166
246 250 169 278 303 307 306 314 323 315 311 316 321 323 326 335 343 340 334 318 309 301 299 296 284 266 252 248 249 245 228 217 209 203 206 206 204 194 180 176 168 166 180
252 247 201 255 290 295 310 320 312 309 315 318 316 320 321 327 326 329 331 317 300 297 295 295 293 286 276 263 255 250 239 233 227 214 211 212 202 192 182 184 184 175 173
232 272 247 229 251 273 286 291 290 299 308 308 308 311 312 320 328 331 329 313 299 297 296 294 287 288 306 305 282 269 249 231 227 224 218 219 211 192 186 186 176 151 123
218 237 252 236 244 263 277 283 283 287 290 290 295 298 300 302 318 329 332 312 307 307 309 313 309 292 310 315 284 273 265 249 237 227 213 209 199 190 175 162 162 160 160
309 282 283 270 254 257 265 275 279 277 275 282 285 281 283 290 291 313 332 312 315 318 317 310 308 313 314 313 277 269 265 261 244 218 207 204 198 190 185 182 176 172 156
355 337 313 288 266 254 248 254 268 276 280 281 282 275 267 266 266 266 315 309 312 315 314 315 317 320 311 294 281 261 257 258 253 222 197 187 183 184 187 187 185 178 171
323 303 287 277 270 269 249 245 250 262 274 279 283 290 279 261 233 238 274 287 297 295 297 304 308 313 306 296 280 266 267 255 234 214 199 193 187 182 178 180 181 181 175
305 288 280 276 267 255 248 247 247 248 255 268 278 286 288 278 237 232 262 281 286 284 287 294 299 297 295 286 263 265 260 230 212 208 201 194 182 172 161 157 151 139 127
312 299 292 290 287 285 271 255 251 251 255 264 273 279 285 285 288 271 279 291 294 294 297 300 298 288 276 271 271 258 238 224 206 198 179 160 149 153 158 155 157 151 138
326 326 322 315 312 305 295 278 271 256 243 244 251 258 274 280 269 266 260 276 300 316 321 310 305 298 286 272 257 240 222 205 189 173 160 156 153 153 155 152 154 156 158
340 343 339 332 325 317 307 304 281 270 266 254 248 248 258 256 263 261 266 274 286 301 312 292 295 293 287 276 263 245 216 195 181 167 161 162 163 163 159 155 158 164 161
346 348 339 334 331 326 323 318 315 305 281 272 266 260 254 261 267 266 267 280 284 277 260 262 266 266 262 256 248 233 220 194 175 172 172 172 170 168 167 168 168 164 162
353 355 347 332 328 328 326 323 321 323 325 317 286 268 269 269 266 264 263 279 276 244 235 248 253 251 246 241 234 229 213 186 177 181 181 179 177 175 175 175 174 171 164
352 351 339 330 328 331 331 330 330 330 330 328 332 336 313 294 286 274 246 233 254 258 250 246 244 241 236 232 225 220 212 198 189 186 188 187 182 180 181 181 176 173 167
343 348 346 338 342 346 344 341 341 341 340 340 341 344 349 346 329 307 253 243 253 260 260 257 250 240 232 226 222 214 209 206 198 195 194 195 189 183 181 181 177 173 174
341 342 349 349 350 350 344 344 346 347 348 346 343 345 350 343 332 332 333 322 304 292 284 278 272 255 237 226 217 215 214 211 204 199 196 195 193 188 183 180 177 173 170
339 343 346 346 346 348 344 344 348 347 346 345 341 343 348 350 344 340 335 331 325 320 315 303 289 282 269 247 228 216 215 216 211 203 198 197 195 192 185 181 180 178 176
336 340 343 345 344 344 345 345 344 344 345 344 345 347 349 346 341 339 338 339 337 333 331 325 314 306 298 282 268 244 226 218 211 204 200 198 196 192 185 184 184 180 181
329 332 336 336 338 338 337 338 339 341 343 342 342 343 343 341 340 340 340 338 339 337 336 334 329 322 317 309 287 276 280 275 243 216 206 203 200 194 188 187 185 184 184
318 322 326 328 331 331 330 331 331 333 334 334 334 335 334 333 332 333 335 337 336 335 335 332 331 331 323 320 322 313 292 279 273 261 225 208 203 199 193 190 187 183 183
306 312 318 323 324 325 325 324 324 326 325 325 324 323 322 322 322 323 324 324 325 324 327 330 330 328 329 325 320 320 309 292 277 268 256 227 210 204 198 195 192 189 185